West Essex Park Conservancy

Static capture example of water rise detection

Temperature/Humidity/Waterlevel monitor

07-11 16:56     F   %    Z  mov    seq 
07-11 03:41,   70, 95,  0.0 145  10649
07-11 03:21,   70, 95,  0.0 145   9692
07-11 03:00,   70, 95,  0.0 145   8737
07-11 02:40,   71, 95,  0.0 145   7778
07-11 02:19,   71, 94,  0.0 145   6822
07-11 01:59,   71, 94,  0.0 145   5866
07-11 01:38,   71, 94,  0.0 145   4909
07-11 01:18,   71, 94,  0.0 145   3975
07-11 00:57,   71, 94,  0.0 145   2969
07-11 00:36,   72, 94,  0.7 145   2014
07-11 00:16,   72, 94,  0.3 145   1079
07-10 23:55,   72, 94,  1.3 145     98
07-10 23:34,   72, 94,  2.5 145  64652
07-10 23:13,   72, 94,  2.7 145  63649
07-10 22:52,   72, 94,  2.7 145  62691
07-10 22:32,   72, 94,  3.3 145  61735
07-10 22:11,   71, 94,  3.1 145  60779
07-10 21:51,   71, 94,  3.1 145  59824
07-10 21:31,   71, 94,  3.3 145  58869
07-10 21:10,   71, 93,  3.3 145  57915
07-10 20:50,   71, 93,  0.0 144  56981
07-10 20:29,   71, 93,  0.0 144  55978
07-10 20:08,   71, 93,  0.0 144  55023
07-10 19:48,   72, 93,  0.0 144  54063
07-10 19:27,   72, 93,  0.0 144  53107

Go to the West Essex Park Conservancy Live monitor.